Location: Bothwell
(41.7170°N, 112.2589°W)
Time: 19:25:43
(UTC+00:00)

ACS3 Solar Sail - Pass Details

Date: 21 April 2026
Orbit: 894 x 947 km, 97.2° (Epoch: 12 May)

Event Time Altitude Azimuth Distance (km) Brightness Sun altitude
Rises 08:01:42 0° 18° (NNE) 3,550 5.7 -35.8°
Reaches altitude 10° 08:04:15 10° 25° (NNE) 2,612 4.8 -35.7°
Enters shadow 08:08:10 36° 57° (ENE) 1,433 2.9 -35.6°
